Overview Statistics Trail Chart Weather Telemetry Raw packets
 

This is the latest recevied weather packets stored in our database for station/object DB0KE-10. If no packets are shown the sender has not sent any weather packets the latest 10 day(s).

<< 3 4 5 6 7 8 9 >>
Time Temp. Humidity Pressure Rain* Wind** Luminosity Snow
1787989341 26.67° C 41% 1024.8 hPa - - - -
1787988441 26.67° C 41% 1024.9 hPa - - - -
1787987541 26.67° C 42% 1025 hPa - - - -
1787986641 26.11° C 42% 1024.9 hPa - - - -
1787985741 26.11° C 42% 1024.9 hPa - - - -
1787984840 26.11° C 42% 1025 hPa - - - -
1787983940 25.56° C 42% 1024.9 hPa - - - -
1787983040 25.56° C 42% 1024.8 hPa - - - -
1787982140 25° C 42% 1024.9 hPa - - - -
1787981240 25° C 41% 1024.8 hPa - - - -
1787980340 25° C 40% 1024.5 hPa - - - -
1787979440 25° C 40% 1024.5 hPa - - - -
1787978543 25° C 41% 1024.4 hPa - - - -
1787977643 25.56° C 39% 1024.3 hPa - - - -
1787976743 25.56° C 40% 1024.3 hPa - - - -
1787975843 25.56° C 40% 1024.4 hPa - - - -
1787974943 25.56° C 41% 1024.4 hPa - - - -
1787974042 25.56° C 39% 1024.4 hPa - - - -
1787973143 26.11° C 39% 1024.5 hPa - - - -
1787972242 26.11° C 40% 1024.4 hPa - - - -
1787971342 26.11° C 39% 1024.3 hPa - - - -
1787970442 26.11° C 39% 1024.3 hPa - - - -
1787969542 26.67° C 38% 1024.3 hPa - - - -
1787968642 26.67° C 39% 1024.5 hPa - - - -
1787967742 27.22° C 41% 1024.6 hPa - - - -

* Rain since midnight (hover to see other rain measurements)
** Current wind speed in m/s (hover to see current wind gust speed)